Location: Colonia Mina de C?rbuni
(46.1667°N, 22.7167°E)
Time: 17:19:05
(UTC+00:00)

Atlas Centaur 2 - Pass Details

Date: 04 February 2023
Orbit: 459 x 1295 km, 30.4° (Epoch: 30 March)

Event Time Altitude Azimuth Distance (km) Brightness Sun altitude
Rises 18:02:07 0° 238° (WSW) 4,117 6.6 -25.2°
Reaches altitude 10° 18:05:28 10° 227° (SW) 3,228 5.7 -25.8°
Maximum altitude 18:11:55 26° 176° (S) 2,323 4.3 -26.9°
Enters shadow 18:13:42 24° 157° (SSE) 2,410 4.3 -27.2°
